sat.trackr.live / text

‹ back to catalog

STARLINK-6366

NORAD 57380 · 2023-099BE

PAYLOAD ACTIVE UNKNOWN

§ Identity

Operator
Country
US
Launch date
2023-07-16
Launch site
AFETR
Launch vehicle
Mass (kg)
RCS (m²)

Purposes: comms

External: N2YO · Heavens-Above · Gunter

§ Orbital elements

Epoch: 2026-09-20T12:33:20.476224Z

Period
94.27 min
Inclination
43.0035°
Eccentricity
0.0001119
Mean motion
15.27574473 rev/d
Perigee alt
482.3 km
Apogee alt
483.8 km
Semi-major
6,861.2 km
B*
-4.3176e-6
RAAN
192.1881°
Arg perigee
272.2818°
Mean anomaly
87.7905°
Rev number
17,706

§ Raw data

STARLINK-63661 57380U 23099BE  26263.52315366 -.00000381  00000+0 -43176-5 0  99952 57380  43.0035 192.1881 0001119 272.2818  87.7905 15.27574473177064

JSON: /api/v1/satellites/57380 · /tle

For live sub-satellite position, see the globe view (requires WebGL).

§ Visibility from observer

Set your observer location to see the next 7 days of passes ≥ 10°. The values pass through the URL so the page stays shareable.

No JS? Fill the form by hand. The geolocation button needs JavaScript.